Date String (YYYY-MM-DD hh:mm:ss) UTC,Instrument flags,Ambient pressure (hPa),Sample flow (lpm),Bypass flow (lpm),Sample temperature (°C),Ambient temperature (°C),ASC tube jacket temperature (°C),LED temperature (°C),Box temperature (°C),Sample RH (%),Span deviation,Mass concentration (μg/m³),Mass concentration (μg/m³),Mass concentration (μg/m³)
DateTimeUTC,F1_M11,P_M11,Q1_M11,Q2_M11,T1_M11,T2_M11,T3_M11,T4_M11,T5_M11,U1_M11,ZSPAN_M11,X0_M11,X2_M11,X1_M11
2022-04-17 17:00:00,,0825.1,5.00,0.00,24.5,23.6,00.0,33.5,26.4,15.6,0000.0,0014.07,0004.36,0001.20
2022-04-17 17:01:00,,0825.2,4.99,0.00,24.5,23.6,00.0,33.5,26.3,15.5,0000.0,0013.80,0004.33,0001.20
2022-04-17 17:02:00,,0825.2,4.99,0.00,24.5,23.6,00.0,33.5,26.3,15.6,0000.0,0013.10,0004.30,0001.20
2022-04-17 17:03:00,,0825.2,5.01,0.00,24.5,23.6,00.0,33.5,26.4,15.8,0000.0,0013.01,0004.31,0001.23
2022-04-17 17:04:00,,0825.1,5.01,0.00,24.6,23.6,00.0,33.5,26.3,15.7,0000.0,0013.06,0004.30,0001.24
2022-04-17 17:05:00,,0825.1,4.99,0.00,24.6,23.5,00.0,33.5,26.4,15.3,0000.0,0013.08,0004.33,0001.24
2022-04-17 17:06:00,,0825.1,4.99,0.00,24.6,23.5,00.0,33.5,26.4,15.1,0000.0,0014.08,0004.30,0001.27
2022-04-17 17:07:00,,0825.2,4.99,0.00,24.6,23.5,00.0,33.5,26.4,15.0,0000.0,0014.26,0004.32,0001.29
2022-04-17 17:08:00,,0825.2,5.00,0.00,24.6,23.5,00.0,33.5,26.5,14.7,0000.0,0013.65,0004.34,0001.30
2022-04-17 17:09:00,,0825.3,5.01,0.00,24.6,23.5,00.0,33.5,26.4,14.5,0000.0,0013.24,0004.34,0001.30
2022-04-17 17:10:00,,0825.2,5.01,0.00,24.6,23.5,00.0,33.5,26.4,15.1,0000.0,0013.53,0004.44,0001.33
2022-04-17 17:11:00,,0825.3,4.99,0.00,24.7,23.5,00.0,33.6,26.5,15.0,0000.0,0013.65,0004.51,0001.37
2022-04-17 17:12:00,,0825.3,5.01,0.00,24.7,23.5,00.0,33.6,26.5,15.1,0000.0,0013.59,0004.52,0001.39
2022-04-17 17:13:00,,0825.3,5.01,0.00,24.7,23.5,00.0,33.6,26.5,15.1,0000.0,0013.76,0004.53,0001.39
2022-04-17 17:14:00,,0825.3,5.00,0.00,24.7,23.5,00.0,33.6,26.5,15.0,0000.0,0014.04,0004.61,0001.40
2022-04-17 17:15:00,,0825.2,4.99,0.00,24.7,23.6,00.0,33.6,26.5,15.2,0000.0,0014.18,0004.66,0001.41
2022-04-17 17:16:00,,0825.2,5.01,0.00,24.7,23.6,00.0,33.6,26.5,15.2,0000.0,0014.41,0004.72,0001.43
2022-04-17 17:17:00,,0825.3,5.00,0.00,24.7,23.6,00.0,33.6,26.5,14.8,0000.0,0013.70,0004.77,0001.40
2022-04-17 17:18:00,,0825.4,4.99,0.00,24.7,23.6,00.0,33.6,26.5,15.0,0000.0,0012.66,0004.72,0001.39
2022-04-17 17:19:00,,0825.4,4.99,0.00,24.7,23.6,00.0,33.6,26.5,15.1,0000.0,0013.54,0004.67,0001.40
2022-04-17 17:20:00,,0825.5,5.01,0.00,24.7,23.7,00.0,33.6,26.5,15.4,0000.0,0013.82,0004.71,0001.41
2022-04-17 17:21:00,,0825.5,5.00,0.00,24.7,23.7,00.0,33.6,26.5,15.6,0000.0,0014.74,0004.72,0001.43
2022-04-17 17:22:00,,0825.5,5.01,0.00,24.7,23.7,00.0,33.6,26.5,16.0,0000.0,0015.26,0004.70,0001.41
2022-04-17 17:23:00,,0825.4,5.00,0.00,24.7,23.7,00.0,33.6,26.5,16.0,0000.0,0015.28,0004.69,0001.40
2022-04-17 17:24:00,,0825.5,4.99,0.00,24.7,23.7,00.0,33.7,26.6,15.9,0000.0,0015.22,0004.72,0001.39
2022-04-17 17:25:00,,0825.4,5.01,0.00,24.8,23.7,00.0,33.7,26.6,16.1,0000.0,0015.08,0004.69,0001.38
2022-04-17 17:26:00,,0825.4,5.00,0.00,24.7,23.8,00.0,33.7,26.6,16.0,0000.0,0014.98,0004.66,0001.37
2022-04-17 17:27:00,,0825.5,4.99,0.00,24.7,23.8,00.0,33.7,26.6,15.7,0000.0,0015.05,0004.63,0001.36
2022-04-17 17:28:00,,0825.5,5.01,0.00,24.8,23.7,00.0,33.7,26.6,16.0,0000.0,0015.64,0004.65,0001.38
2022-04-17 17:29:00,,0825.5,4.99,0.00,24.8,23.8,00.0,33.7,26.6,16.1,0000.0,0015.96,0004.69,0001.38
2022-04-17 17:30:00,,0825.5,4.99,0.00,24.7,23.8,00.0,33.7,26.6,16.2,0000.0,0015.03,0004.71,0001.34
2022-04-17 17:31:00,,0825.5,5.00,0.00,24.7,23.8,00.0,33.7,26.5,16.1,0000.0,0014.74,0004.64,0001.31
2022-04-17 17:32:00,,0825.4,5.01,0.00,24.8,23.8,00.0,33.7,26.6,16.1,0000.0,0014.18,0004.62,0001.27
2022-04-17 17:33:00,,0825.3,4.99,0.00,24.8,23.8,00.0,33.7,26.6,15.8,0000.0,0013.62,0004.51,0001.23
2022-04-17 17:34:00,,0825.3,5.00,0.00,24.8,23.8,00.0,33.7,26.6,15.8,0000.0,0014.65,0004.54,0001.21
2022-04-17 17:35:00,,0825.3,5.00,0.00,24.8,23.8,00.0,33.7,26.6,15.8,0000.0,0015.11,0004.53,0001.21
2022-04-17 17:36:00,,0825.3,5.01,0.00,24.8,23.8,00.0,33.7,26.6,16.2,0000.0,0015.93,0004.48,0001.23
2022-04-17 17:37:00,,0825.4,5.00,0.00,24.8,23.8,00.0,33.7,26.6,16.1,0000.0,0015.86,0004.46,0001.24
2022-04-17 17:38:00,,0825.3,4.99,0.00,24.8,23.8,00.0,33.7,26.6,16.2,0000.0,0015.83,0004.51,0001.25
2022-04-17 17:39:00,,0825.2,4.99,0.00,24.8,23.8,00.0,33.7,26.6,16.3,0000.0,0015.45,0004.48,0001.25
2022-04-17 17:40:00,,0825.3,5.01,0.00,24.8,23.8,00.0,33.7,26.6,16.0,0000.0,0015.35,0004.42,0001.25
2022-04-17 17:41:00,,0825.3,4.99,0.00,24.8,23.8,00.0,33.7,26.6,15.9,0000.0,0015.29,0004.45,0001.27
2022-04-17 17:42:00,,0825.3,5.02,0.00,24.8,23.8,00.0,33.7,26.6,15.5,0000.0,0015.38,0004.46,0001.30
2022-04-17 17:43:00,,0825.3,5.00,0.00,24.8,23.8,00.0,33.7,26.6,15.6,0000.0,0015.47,0004.46,0001.29
2022-04-17 17:44:00,,0825.3,5.00,0.00,24.8,23.9,00.0,33.8,26.6,15.6,0000.0,0016.03,0004.57,0001.33
2022-04-17 17:45:00,,0825.3,5.00,0.00,24.8,23.9,00.0,33.8,26.6,15.3,0000.0,0015.26,0004.64,0001.36
2022-04-17 17:46:00,,0825.3,4.99,0.00,24.8,23.9,00.0,33.8,26.6,15.5,0000.0,0015.17,0004.71,0001.39
2022-04-17 17:47:00,,0825.4,5.00,0.00,24.8,23.9,00.0,33.8,26.6,15.6,0000.0,0014.81,0004.75,0001.39
2022-04-17 17:48:00,,0825.3,5.02,0.00,24.8,23.9,00.0,33.8,26.6,15.2,0000.0,0015.09,0004.78,0001.41
2022-04-17 17:49:00,,0825.4,4.99,0.00,24.8,23.8,00.0,33.8,26.6,15.1,0000.0,0014.86,0004.75,0001.42
2022-04-17 17:50:00,,0825.4,4.99,0.00,24.8,23.8,00.0,33.8,26.7,15.3,0000.0,0015.30,0004.76,0001.40
2022-04-17 17:51:00,,0825.5,5.00,0.00,24.9,23.8,00.0,33.8,26.6,15.4,0000.0,0016.08,0004.84,0001.43
2022-04-17 17:52:00,,0825.5,5.00,0.00,24.9,23.8,00.0,33.8,26.7,15.6,0000.0,0016.04,0004.85,0001.43
2022-04-17 17:53:00,,0825.5,5.01,0.00,24.9,23.8,00.0,33.8,26.7,15.6,0000.0,0015.96,0004.90,0001.44
2022-04-17 17:54:00,,0825.5,5.00,0.00,24.9,23.8,00.0,33.8,26.7,15.5,0000.0,0016.82,0004.94,0001.47
2022-04-17 17:55:00,,0825.4,4.99,0.00,24.9,23.8,00.0,33.8,26.7,15.3,0000.0,0016.18,0004.93,0001.49
2022-04-17 17:56:00,,0825.4,5.00,0.00,24.9,23.8,00.0,33.8,26.7,15.4,0000.0,0016.55,0004.92,0001.50
2022-04-17 17:57:00,,0825.4,5.02,0.00,25.0,23.8,00.0,33.8,26.8,14.8,0000.0,0016.68,0004.89,0001.50
2022-04-17 17:58:00,,0825.4,4.99,0.00,25.0,23.9,00.0,33.8,26.8,14.6,0000.0,0016.35,0004.96,0001.51
2022-04-17 17:59:00,,0825.5,5.01,0.00,25.0,23.9,00.0,33.8,26.8,14.7,0000.0,0016.29,0005.05,0001.53
